Regional Weather Roundup
Issued by NWS Wakefield, VA

Home | Current Version | Previous Version | Text Only | Print | Product List | Glossary Off
Versions: 1 2 3 4 5 6 7 8 9 10 11 12 13 14 15 16 17 18 19 20 21 22 23 24 25 26 27 28 29 30 31 32 33 34 35 36 37 38 39 40 41 42 43 44 45 46 47 48 49 50

000
ASUS41 KAKQ 250615
RWRAKQ

REGIONAL WEATHER ROUNDUP
NATIONAL WEATHER SERVICE WAKEFIELD VA
200 AM EDT TUE JUL 25 2017

Note: "fair" indicates few or no clouds below 12,000 feet with no
significant weather and/or obstructions to visibility. * = Denotes
station may not report precipitation (e.g., rain,snow,etc.),
thunder or fog.

VAZ042-051-052>054-056-250700-
NORTHERN VIRGINIA

CITY           SKY/WX    TMP DP  RH WIND       PRES   REMARKS
WASH NATIONAL  CLOUDY    79  65  62 N13       29.95R
DULLES         CLOUDY    75  61  61 N10       29.96R
FORT BELVOIR   PTCLDY    78  65  63 N5G16     29.94R
QUANTICO       PTCLDY    80  69  69 N10       29.94R
FREDERICKSBRG* CLEAR     78  68  71 MISG      29.92R
STAFFORD*      PTCLDY    76  67  73 N9        29.97S
WARRENTON      PTCLDY    76  64  67 N6        29.95R
CULPEPER*      PTCLDY    75  68  77 N6        29.96S
MANASSAS*      CLOUDY    75  65  70 N10       29.95R
LEESBURG*      CLOUDY    75  64  69 N10       29.98R
WINCHESTER     CLOUDY    70  59  68 N6        30.01R
FRONT ROYAL*   MOCLDY    72  63  73 N6        30.00R
LURAY*         CLOUDY    73  64  73 N6        29.99R
$$

VAZ048-049-060>072-079>083-250700-
CENTRAL AND SOUTH CENTRAL VIRGINIA

CITY           SKY/WX    TMP DP  RH WIND       PRES   REMARKS
RICHMOND       PTCLDY    80  71  74 W7        29.93R
CHESTERFIELD*  NOT AVBL
PETERSBURG*    CLEAR     75  68  80 CALM      29.94R
HANOVER        PTCLDY    74  69  85 CALM      29.94R
TAPPAHANNOCK*  PTCLDY    78  62  57 CALM      29.93R
QUINTON*       FAIR      74  74 100 CALM      29.92R
CHARLOTTSVILLE CLOUDY    80  64  58 W3        29.96R
GORDONSVILLE*  MOCLDY    74  66  75 CALM      29.95R
ORANGE*        MOCLDY    70  66  88 CALM      29.95R
LOUISA*        PTCLDY    66  64  94 CALM      29.95R
BUMPASS*       FAIR      71  69  95 CALM      29.95R
FARMVILLE*     PTCLDY    76  64  66 CALM      29.95R
CREWE*         FAIR      76  65  68 CALM      29.95R
FORT PICKETT*  FAIR     N/A N/A N/A W3        29.95S
CHASE CITY*    FAIR      74  74  99 CALM      29.96S
CLARKSVILLE*   FAIR      77  70  78 CALM      29.96R
SOUTH HILL*    PTCLDY    75  71  87 CALM      30.01S
LAWRENCEVILLE* FAIR      75  69  84 CALM      29.95S
EMPORIA*       MOCLDY    77  72  83 CALM      29.96R
$$

VAZ088>098-250700-
SOUTHEAST VIRGINIA

CITY           SKY/WX    TMP DP  RH WIND       PRES   REMARKS
NORFOLK        CLEAR     81  75  82 SW10      29.91S
VIRGINIA BEACH PTCLDY    79  72  79 SW10      29.91S
NORFOLK NAVAL  PTCLDY    81  75  82 SW7       29.92S
WEST POINT*    CLEAR     80  71  74 W7        29.92R
SALUDA*        FAIR      80  75  83 W6        29.90R
NEWPORT NEWS   PTCLDY    81  75  82 SW12      29.91R
LANGLEY AFB    PTCLDY    81  76  85 SW13      29.91R
FORT EUSTIS    PTCLDY    80  75  83 SW6       29.89R
WILLIAMSBURG*  PTCLDY    82  73  74 CALM      29.93R
HR EXEC AP*    FAIR      77  72  83 SW5       29.90S
FRANKLIN*      CLOUDY   N/A N/A N/A SW3       29.93S
US460-WAKEFLD  PTCLDY    78  74  87 SW5       29.92S
$$

VAZ020-022-025-037-045-250700-
WEST CENTRAL AND SOUTHWEST VIRGINIA

CITY           SKY/WX    TMP DP  RH WIND       PRES   REMARKS
STAUNTON*      CLOUDY    69  62  78 CALM      30.03R
WAYNESBORO*    CLOUDY    74  65  73 W6        30.02R
HOT SPRINGS VA CLOUDY    63  63 100 W13       30.14S FOG
LYNCHBURG      PTCLDY   N/A N/A N/A NW3       29.99R
DANVILLE       PTCLDY    72  72 100 CALM      29.98R
SOUTH BOSTON*  FAIR      73  72  96 CALM      29.97R
MARTINSVILLE   CLEAR     69  68  96 CALM      30.03S FOG
ROANOKE        PTCLDY    75  66  73 NW6       30.04R
BLACKSBURG     PTCLDY    69  65  87 CALM      30.12S
DUBLIN*        PTCLDY    71  63  74 W6        30.11R
MARION*        CLOUDY    68  64  88 CALM      30.16S
HILLSVILLE*    CLEAR     70  62  76 CALM      30.12R
RICHLANDS*     MOCLDY    67  65  93 W3        30.15S FOG
WISE*          PTCLDY    66  66 100 CALM      30.15F
ABINGDON*      PTCLDY    71  68  89 CALM      30.11S
$$

MDZ021>025-VAZ099-100-250700-
SOUTHERN MARYLAND AND THE DELMARVA PENINSULA

CITY           SKY/WX    TMP DP  RH WIND       PRES   REMARKS
PATUXENT RIVER CLEAR     80  71  74 N14G25    29.92R
BAY BRIDGE APT PTCLDY    75  70  83 NE12      29.94R
LEONARDTOWN    CLEAR     77  68  73 CALM      29.94R
DOVER          PTCLDY    70  70 100 NW5       29.91S
GEORGETOWN     CLOUDY    72  69  90 NE3       29.92F
EASTON         PTCLDY    75  70  84 N8        29.97R
CAMBRIDGE      CLOUDY    75  72  88 CALM      29.92R
SALISBURY      NOT AVBL
OCEAN CITY     CLOUDY    74  70  87 N20G31    29.92R
WALLOPS ISLAND CLEAR     76  75  97 SW5       29.89R
ACCOMACK*      CLEAR     79  76  90 SW7       29.89R
$$

NCZ012>017-030>032-250700-
NORTH CENTRAL AND EASTERN NORTH CAROLINA

CITY           SKY/WX    TMP DP  RH WIND       PRES   REMARKS
ROANOKE RAPIDS FAIR      77  75  94 SW5       29.95R
RALEIGH        MOCLDY    78  75  90 SW7       29.98R
ELIZABETH CITY CLOUDY    78  77  96 SW6       29.94R
AHOSKIE*         N/A     74  74  98 CALM      29.95R
EDENTON*       CLOUDY    82  77  84 CALM      29.96S
CURRITUCK*     CLOUDY    79  79  99 SW5       29.95R
KILL DEVIL HLS CLOUDY    80  77  91 SW6       29.94R
MANTEO         CLOUDY    80  77  92 W12       29.95S
CAPE HATTERAS  CLOUDY    78  75  90 SW12      29.98R
TARBORO*       NOT AVBL
GOLDSBORO      CLOUDY    78  78 100 SW7       29.96S
WASHINGTON     CLOUDY    79  76  91 SW8       29.97R
GREENVILLE     CLOUDY    79  75  89 SW6       29.98S
NEW BERN       CLOUDY    77  75  93 SW7       29.99S
WILMINGTON     CLOUDY    77  72  84 SW7       30.00R
$$

VAZ048-250700-
ELSEWHERE

CITY           SKY/WX    TMP DP  RH WIND       PRES   REMARKS
HARRISBURG PA  PTCLDY    70  61  73 W8        29.96R
BALTIMORE      CLOUDY    72  71  97 NW6       29.94R
ANNAPOLIS      MOCLDY    78  74  87 N9        29.93R
ANDREWS AFB    MOCLDY    76  67  73 N12       29.94R
PHILADELPHIA   CLOUDY    68  66  93 NE7       29.96R
HENDERSON NC   MOCLDY    73  67  83 CALM      29.98R
GREENSBORO     MOCLDY    75  71  87 W9        30.00R
ROCKY MOUNT    PTCLDY    76  75  97 S3        29.96R
$$

VAZ100-250700-
MARINE

STATION/POSITION TIME  TEMP    WIND        PRES    WAVE   SWELL
                       AIR SEA DIR/SP/G            HT/PER HT/PER
                 (UTC) (F)     (DEG/KT/KT) (MB)    (FT/S) (FT/S)
BRANDYWINE LGT   0548           70/ 12/ 12   N/A
CAPE MAY NJ      0548   69 74   60/  4/  7 1012.5F
LEWES DE         0548   71 76  100/  6/  8 1012.6S
15NM E FENWICK I 0550   76 78  310/ 16/ 21 1012.4R   3/ 7   2/12
OCEAN-CITY-INLET 0548   76 69   90/  3/  5 1012.4R
WACHAPREAGUE VA  0548   81 83  190/  5/ 10 1012.2R
THOMAS POINT MD  0600   78 82   10/ 17/ 18   N/A
GOOSES REEF MD   0550   81      50/ 17/ 21 1013.8R
COVE POINT MD    0548   80      20/ 21/ 25 1013.7R
SOLOMONS ISLAND  0548   80 84  360/  7/ 10   N/A
BISHOPS HEAD MD  0548   80 83  360/  9/ 14 1012.7R
PINEY POINT MD   0548           20/ 13/ 17   N/A
POTOMAC MD       0550   83     350/ 14/ 19 1011.8R
CAMBRIDGE MD     0536   78 86              1014.1R
LEWISETTA VA     0548   83 85  360/ 12/ 18 1012.7R
RAPPAHANNOCK LGT 0548          230/ 15/ 17 1012.6R
STINGRAY PT      0550   85     280/ 12/ 16 1012.0R
YORK RVR RNG VA  0548   83     250/ 12/ 14 1012.8R
YORKTOWN VA      0548   81 82  250/ 10/ 13 1012.2R
JAMESTOWN VA     0550          280/  8/ 12   N/A
DOMINION TERM VA 0548   81     240/ 12/ 15 1012.9R
KIPTOPEKE VA     0548      74  220/ 10/ 12   N/A
CHES BAY BRIDGE  0548   81 66  230/ 16/ 17 1012.5R
CAPE HENRY VA    0548   81     220/  9/ 15   N/A
WILLOUBY STN VA  0548   81     220/ 14/ 16 1012.8R
S CRANEY ISL VA  0548   81     220/  8/ 11 1012.8R
CAPE HENRY BUOY  0530      65                N/A     2/11   2/11
1ST LANDING BUOY 0550   80                 1012.7R
64NM E OF VA BCH 0550   80 78  230/ 12/ 14 1013.7R   4/ 6   3/ 7
DUCK PIER NC     0548   82 65  240/ 12/ 19 1013.6R
44100 DUCK FRF   0505      78                N/A     3/ 5
44056 DUCK FRF   0530      73                N/A     2/10
OREGON INLET NC  0548          230/ 12/ 16   N/A
HATTERAS NC      0548   78 78  220/  9/ 13 1015.2R
DIAMOND SHLS NC  0550   83 84  230/ 19/ 23 1015.0R   6/ 6   2/11
CAPE LOOKOUT NC  0500   81     230/ 10/ 15 1015.3R
$$



USA.gov is the U.S. government's official web portal to all federal, state and local government web resources and services.